Flag for Switzerland Weather past 2 weeks in Davos, Graubünden, Switzerland

Now
54 °F

Cool.


Feels Like: 54 °F
Forecast: 36 / 59 °F
Wind: 5 mph from Northeast

Location: Chur-Ems

Current Time: May 30, 2015 at 6:51:06 AM

Latest Report: May 30, 2015 at 6:00 AM


Visibility: N/A

Pressure: 29.99 "Hg

Humidity: 86%

Dew point: 51 °F

Location of DavosLocation

Historic Weather in Davos — Graph

°F

Davos temperature yesterday

Maximum temperature yesterday: 74 °F (at 3:00 PM)
Minimum temperature yesterday: 51 °F (at 5:00 AM)
Average temperature yesterday: 63 °F

Past Weeks' High & Low Weather Summary

 TemperatureHumidityPressure
High75 °F (May 18, 4:00 PM)94% (May 15, 7:00 AM)30.33 "Hg (May 15, 7:00 AM)
Low41 °F (May 21, 4:00 AM)26% (May 28, 2:00 PM)29.68 "Hg (May 18, 6:00 PM)
Average54 °F71%30.05 "Hg
* Reported May 15 4:00 AM — May 30 4:00 AM, Davos, Weather by CustomWeather, © 2015

Note: Actual official high and low records may vary slightly from our data, if they occured in-between our weather recording intervals... More about our weather records

Advertising

Davos weather history for previous 24 hours

 ConditionsComfort  
Time TempWeatherWind HumidityBarometerVisibility
4:00 AM
Sat, May 30
56 °FCool.6 mph79%29.96 "HgN/A
3:00 AM56 °FCool.8 mph77%29.97 "HgN/A
2:00 AM55 °FPassing clouds.6 mph80%29.93 "Hg9 mi
1:00 AM56 °FCool.2 mph77%29.95 "HgN/A
12:00 AM59 °FCool.3 mph68%29.93 "HgN/A
11:00 PM
Fri, May 29
63 °FMild.8 mph53%29.90 "HgN/A
10:00 PM65 °FMild.10 mph45%29.86 "HgN/A
9:00 PM68 °FMild.9 mph40%29.83 "HgN/A
8:00 PM66 °FScattered clouds.2 mph58%29.81 "Hg10 mi
7:00 PM70 °FMild.2 mph46%29.78 "HgN/A
6:00 PM71 °FMild.6 mph41%29.76 "HgN/A
5:00 PM72 °FPartly sunny.9 mph36%29.77 "Hg10 mi
4:00 PM74 °FMild.7 mph35%29.76 "HgN/A
3:00 PM74 °FMild.7 mph34%29.77 "HgN/A
2:00 PM74 °FScattered clouds.9 mph33%29.79 "Hg11 mi
1:00 PM72 °FMild.5 mph44%29.83 "HgN/A
12:00 PM69 °FMild.2 mph39%29.86 "HgN/A
11:00 AM66 °FScattered clouds.3 mph42%29.89 "Hg9 mi
10:00 AM64 °FMild.6 mph46%29.92 "HgN/A
9:00 AM60 °FRefreshingly cool.7 mph51%29.97 "HgN/A
8:00 AM56 °FOvercast.5 mph56%30.01 "Hg9 mi
7:00 AM52 °FCool.6 mph63%30.03 "HgN/A
6:00 AM51 °FCool.6 mph67%30.04 "HgN/A
Weather by CustomWeather, © 2015

See weather overviewHow to use our weather pages